Regional Weather Roundup
Issued by NWS

Home | Current Version | Previous Version | Text Only | Print | Product List | Glossary On
Versions: 1 2 3 4 5 6 7 8 9 10 11 12 13 14 15 16 17 18 19 20 21 22 23 24 25 26 27 28 29 30 31 32 33 34 35 36 37 38 39 40 41 42 43 44 45 46 47 48 49 50
000
ASUS43 KDMX 231206
RWRIA

WEATHER ROUNDUP FOR IOWA
NATIONAL WEATHER SERVICE DES MOINES IA
700 AM CDT FRI JUN 23 2017

NOTE: "FAIR" INDICATES FEW OR NO CLOUDS BELOW 12,000 FEET WITH NO
SIGNIFICANT WEATHER AND/OR OBSTRUCTIONS TO VISIBILITY.

* - THESE STATIONS ARE NOT NWS STATIONS...THUS NOT UNDER NWS
QUALITY CONTROL.  THEY ALSO DO NOT REPORT WEATHER SUCH
AS PRECIPITATION OR FOG.

IAZ001>003-012>014-020>022-031>034-043>046-231300-
   NORTHWEST IOWA

CITY           SKY/WX    TMP DP  RH WIND       PRES   REMARKS
CARROLL *      SUNNY     59  54  82 NW9       29.88R
CHEROKEE *     CLOUDY    60  50  70 NW13G18   29.90R
DENISON *      SUNNY     59  54  82 CALM      29.92R
LE MARS *      CLOUDY    59  48  67 NW7       29.93R
ORANGE CITY *  PTSUNNY   59  48  67 NW13G21   29.92R
SHELDON *      MOSUNNY   57  48  72 MISG      29.89R
SIOUX CITY       N/A    N/A N/A N/A MISG      29.92R
SPENCER        SUNNY     58  51  78 NW8       29.87R
6HR MIN TEMP:  50; 6HR MAX TEMP:  58;

STORM LAKE *   SUNNY     59  52  77 W12       29.90R
$$

IAZ055>058-069>071-079>083-090>094-231300-
   SOUTHWEST IOWA

CITY           SKY/WX    TMP DP  RH WIND       PRES   REMARKS
ATLANTIC *     SUNNY     61  55  82 NW10      29.89R
AUDUBON *      SUNNY     61  55  82 CALM      29.90R
CLARINDA *     PTSUNNY   64  61  88 NE3       29.88R
COUNCIL BLFS * SUNNY     63  57  82 CALM      29.90R
CRESTON *      SUNNY     64  61  88 VRB6G13   29.86R
HARLAN  *      SUNNY     59  55  88 CALM      29.93R
LAMONI         CLOUDY    66  64  93 N13       29.82R
6HR MIN TEMP:  66; 6HR MAX TEMP:  76; 6HR PCP:  0.06;

RED OAK *      SUNNY     63  57  82 MISG      29.89R
SHENANDOAH *   MOSUNNY   64  59  82 N6        29.89R
$$

IAZ047>049-059>061-072>074-084-231300-
   CENTRAL IOWA

CITY           SKY/WX    TMP DP  RH WIND       PRES   REMARKS
AMES           SUNNY     63  60  90 NW10      29.83R
6HR MIN TEMP:  60; 6HR MAX TEMP:  70;

ANKENY *       SUNNY     64  61  88 NW7       29.83R
BOONE *        SUNNY     63  57  82 NW12      29.84R
CHARITON *     MOSUNNY   66  64  94 NW10      29.81R
DES MOINES     MOSUNNY   65  61  87 NW8       29.82R
6HR MIN TEMP:  64; 6HR MAX TEMP:  72; 6HR PCP: TRACE;

GRINNELL*      MOSUNNY   64  63  94 NW5       29.81R FOG
KNOXVILLE *    PTSUNNY   66  64  94 NW8       29.80R FOG
MARSHALLTOWN   MOSUNNY   62  62 100 NW7       29.79R
6HR MIN TEMP:  61; 6HR MAX TEMP:  71;

NEWTON *       CLOUDY    64  63  94 N6        29.81R FOG
PELLA *        CLOUDY    65  64  96 NW6       29.81R FOG
PERRY *          N/A     61  60  96 NW8       29.85R
$$

IAZ004>006-015-016-023>025-035-036-231300-
   NORTH CENTRAL IOWA

CITY           SKY/WX    TMP DP  RH WIND       PRES   REMARKS
ALGONA *       SUNNY     61  54  77 NW10      29.85R
CLARION *        N/A     59  59 100 CALM      29.83
ESTHERVILLE    SUNNY     58  52  80 NW9       29.84R
6HR MIN TEMP:  53; 6HR MAX TEMP:  59;

FORT DODGE *   SUNNY     59  52  77 CALM      29.86R
MASON CITY     MOSUNNY   61  56  83 W7        29.82R
6HR MIN TEMP:  54; 6HR MAX TEMP:  66;

FOREST CITY *    N/A     57  50  77 CALM      29.82R
WEBSTER CITY * SUNNY     59  57  94 W5        29.82R
$$

IAZ007>011-017>019-026>030-037>042-050>054-066-231300-
   NORTHEAST IOWA

CITY           SKY/WX    TMP DP  RH WIND       PRES   REMARKS
CEDAR RAPIDS   CLOUDY    65  65 100 N6        29.75R
6HR MIN TEMP:  65; 6HR MAX TEMP:  76; 6HR PCP:  0.42;

CHARLES CITY * SUNNY     61  61 100 W5        29.80R
CLINTON *      CLOUDY    66  63  90 N7        29.75R
DECORAH *      FOG       63  61  94 W5        29.77R VSB<1/4
DUBUQUE        CLOUDY    63  60  90 N6        29.74F
6HR MIN TEMP:  63; 6HR MAX TEMP:  74; 6HR PCP:  0.42;

MONTICELLO *   CLOUDY    64  63  94 CALM      29.74S
OELWEIN *      MOSUNNY   63  63 100 NW7       29.78S FOG
WATERLOO       MOSUNNY   63  62  97 NW7       29.77R FOG
6HR MIN TEMP:  63; 6HR MAX TEMP:  69;

$$

IAZ064-065-067-068-078-231300-
   EAST CENTRAL IOWA

CITY           SKY/WX    TMP DP  RH WIND       PRES   REMARKS
DAVENPORT      PTSUNNY   66  63  90 N8        29.74R
6HR MIN TEMP:  66; 6HR MAX TEMP:  76; 6HR PCP:  0.86;

IOWA CITY      CLOUDY    69  63  81 N8        29.75R
6HR MIN TEMP:  69; 6HR MAX TEMP:  79; 6HR PCP:  0.06;

MT. PLEASANT * CLOUDY    67  66  97 N6        29.75S
MUSCATINE *    CLOUDY    68  64  88 NE6       29.74R
QUAD CITIES    CLOUDY    69  64  84 N6        29.72R
6HR MIN TEMP:  69; 6HR MAX TEMP:  77; 6HR PCP:  0.57;

$$

IAZ062-063-075>077-085>089-095>099-231300-
   SOUTHEAST IOWA

CITY           SKY/WX    TMP DP  RH WIND       PRES   REMARKS
BURLINGTON     LGT RAIN  70  68  93 N14G21    29.73R
6HR MIN TEMP:  70; 6HR MAX TEMP:  76; 6HR PCP:  0.17;

FAIRFIELD *    CLOUDY    68  64  88 N8        29.76R
FORT MADISON * LGT RAIN  70  68  94 N8        29.74R
KEOKUK *       LGT RAIN  70  68  94 NW8       29.74R
OSKALOOSA *    PTSUNNY   67  65  96 N7        29.79R
CENTERVILLE *    N/A     66  66 100 CALM      29.81R
OTTUMWA        CLOUDY    69  66  90 N10       29.77R
6HR MIN TEMP:  69; 6HR MAX TEMP:  77; 6HR PCP:  0.07;

WASHINGTON *   CLOUDY    66  64  94 N7        29.77R
$$

ABBREVIATIONS USED IN REMARKS
   TC - TEMPERATURES IN CELSIUS
  WCI - WIND CHILL INDEX
   HX - HEAT INDEX
  VSB - VISIBILITY
$$




USA.gov is the U.S. government's official web portal to all federal, state and local government web resources and services.